�������C�����ː����j�^�v���󋵏��
Date,Time,Cs137(Bq/L),Cs134(Bq/L),�S��(Bq/L)
2020/02/19,00:00,0.18,ND,31
2020/02/19,00:10,0.18,ND,29
2020/02/19,00:20,0.15,ND,28
2020/02/19,00:30,0.15,ND,26
2020/02/19,00:40,0.15,ND,26
2020/02/19,00:50,0.15,ND,26
2020/02/19,01:00,0.15,ND,24
2020/02/19,01:10,0.14,ND,24
2020/02/19,01:20,0.16,ND,23
2020/02/19,01:30,0.14,ND,23
2020/02/19,01:40,0.14,ND,19
2020/02/19,01:50,0.13,ND,21
2020/02/19,02:00,0.13,ND,23
2020/02/19,02:10,0.12,ND,24
2020/02/19,02:20,0.12,ND,24
2020/02/19,02:30,0.12,ND,24
2020/02/19,02:40,0.17,ND,26
2020/02/19,02:50,0.13,ND,25
2020/02/19,03:00,0.14,ND,24
2020/02/19,03:10,0.15,ND,24
2020/02/19,03:20,0.15,ND,26
2020/02/19,03:30,0.16,ND,26
2020/02/19,03:40,0.16,ND,26
2020/02/19,03:50,0.15,ND,26
2020/02/19,04:00,0.17,ND,27
2020/02/19,04:10,0.17,ND,25
2020/02/19,04:20,0.15,ND,25
2020/02/19,04:30,0.17,ND,22
2020/02/19,04:40,0.14,ND,20
2020/02/19,04:50,0.15,ND,19
2020/02/19,05:00,0.14,ND,18
2020/02/19,05:10,0.14,ND,19
2020/02/19,05:20,0.12,ND,17
2020/02/19,05:30,0.12,ND,18
2020/02/19,05:40,0.12,ND,21
2020/02/19,05:50,0.13,ND,21
2020/02/19,06:00,0.15,ND,22
2020/02/19,06:10,0.14,ND,23
2020/02/19,06:20,0.15,ND,22
2020/02/19,06:30,0.14,ND,25
2020/02/19,06:40,0.12,ND,23
2020/02/19,06:50,0.11,ND,23
2020/02/19,07:00,0.10,ND,22
2020/02/19,07:10,0.11,ND,23
2020/02/19,07:20,0.11,ND,24
2020/02/19,07:30,0.11,ND,22
2020/02/19,07:40,0.11,ND,23
2020/02/19,07:50,0.097,ND,24
2020/02/19,08:00,0.10,ND,23
2020/02/19,08:10,0.094,ND,19
2020/02/19,08:20,0.093,ND,19
2020/02/19,08:30,0.11,ND,20
2020/02/19,08:40,0.12,ND,20
2020/02/19,08:50,0.12,ND,19
2020/02/19,09:00,0.11,ND,22
2020/02/19,09:10,0.11,ND,22
2020/02/19,09:20,0.12,ND,22
2020/02/19,09:30,0.13,ND,23
2020/02/19,09:40,0.12,ND,22
2020/02/19,09:50,0.13,ND,21
2020/02/19,10:00,0.13,ND,18
2020/02/19,10:10,0.12,ND,21
2020/02/19,10:20,0.10,ND,23
2020/02/19,10:30,0.11,ND,22
2020/02/19,10:40,0.11,ND,21
2020/02/19,10:50,0.096,ND,21
2020/02/19,11:00,0.098,ND,20
2020/02/19,11:10,0.11,ND,18
2020/02/19,11:20,0.11,ND,15
2020/02/19,11:30,0.092,ND,15
2020/02/19,11:40,0.10,ND,17
2020/02/19,11:50,0.098,ND,16
2020/02/19,12:00,0.080,ND,18
2020/02/19,12:10,0.076,ND,21
2020/02/19,12:20,0.078,ND,23
2020/02/19,12:30,0.084,ND,22
2020/02/19,12:40,0.098,ND,19
2020/02/19,12:50,0.095,ND,20
2020/02/19,13:00,0.092,ND,22
2020/02/19,13:10,0.089,ND,24
2020/02/19,13:20,0.090,ND,21
2020/02/19,13:30,0.067,ND,21
2020/02/19,13:40,0.056,ND,24
2020/02/19,13:50,ND,ND,25
2020/02/19,14:00,ND,ND,22
2020/02/19,14:10,ND,ND,18
2020/02/19,14:20,0.058,ND,17
2020/02/19,14:30,0.055,ND,19
2020/02/19,14:40,0.049,ND,18
2020/02/19,14:50,ND,ND,17
2020/02/19,15:00,ND,ND,19
2020/02/19,15:10,ND,ND,21
2020/02/19,15:20,ND,ND,22
2020/02/19,15:30,0.051,ND,24
2020/02/19,15:40,0.057,ND,26
2020/02/19,15:50,0.067,ND,29
2020/02/19,16:00,0.095,ND,26
2020/02/19,16:10,0.097,ND,26
2020/02/19,16:20,0.10,ND,28
2020/02/19,16:30,0.092,ND,24
2020/02/19,16:40,0.10,ND,21
2020/02/19,16:50,0.094,ND,16
2020/02/19,17:00,0.076,ND,16
2020/02/19,17:10,0.067,ND,17
2020/02/19,17:20,0.064,ND,15
2020/02/19,17:30,0.070,ND,18
2020/02/19,17:40,0.065,ND,18
2020/02/19,17:50,0.079,ND,20
2020/02/19,18:00,0.079,ND,22
2020/02/19,18:10,0.067,ND,23
2020/02/19,18:20,0.074,ND,23
2020/02/19,18:30,0.088,ND,21
2020/02/19,18:40,0.082,ND,22
2020/02/19,18:50,0.082,ND,20
2020/02/19,19:00,0.096,ND,20
2020/02/19,19:10,0.13,ND,21
2020/02/19,19:20,0.15,ND,19
2020/02/19,19:30,0.15,ND,18
2020/02/19,19:40,0.16,ND,17
2020/02/19,19:50,0.17,ND,18
2020/02/19,20:00,0.18,ND,19
2020/02/19,20:10,0.19,ND,18
2020/02/19,20:20,0.18,ND,20
2020/02/19,20:30,0.17,ND,20
2020/02/19,20:40,0.17,ND,21
2020/02/19,20:50,0.16,ND,24
2020/02/19,21:00,0.14,ND,22
2020/02/19,21:10,0.13,ND,21
2020/02/19,21:20,0.15,ND,23
2020/02/19,21:30,0.14,ND,24
2020/02/19,21:40,0.15,ND,23
2020/02/19,21:50,0.13,ND,21
2020/02/19,22:00,0.13,ND,20
2020/02/19,22:10,0.12,ND,20
2020/02/19,22:20,0.12,ND,16
2020/02/19,22:30,0.11,ND,18
2020/02/19,22:40,0.098,ND,20
2020/02/19,22:50,0.11,ND,19
2020/02/19,23:00,0.10,ND,17
2020/02/19,23:10,0.10,ND,18
2020/02/19,23:20,0.11,ND,21
2020/02/19,23:30,0.11,ND,20
2020/02/19,23:40,0.11,ND,19
2020/02/19,23:50,0.098,ND,20
